Location: �quirre
(50.4736°N, 2.2351°E)
Time: 10:44:07
(UTC+00:00)

Meteor 1-24 Rocket - Pass Details

Date: 07 August 2020
Orbit: 789 x 928 km, 81.3° (Epoch: 20 September)

Event Time Altitude Azimuth Distance (km) Brightness Sun altitude
Rises 01:56:05 0° 348° (NNW) 3,418 7.6 -18.3°
Reaches altitude 10° 01:58:33 10° 349° (N) 2,458 6.8 -18.1°
Maximum altitude 02:04:06 82° 78° (ENE) 830 3.7 -17.6°
Enters shadow 02:08:30 16° 165° (SSE) 2,004 5.3 -17.2°
